Home   Weather   Bnei Brak   Past weeks

Flag for Israel Past Weather in Bnei Brak, Israel — Yesterday and Last 2 Weeks

Now
70 °F

Sunny.


Feels Like: 70 °F
Forecast: 78 / 94 °F
Wind: 6 mph from East

Location: Dov Airport

Current Time: Oct 1, 2016 at 7:57:08 AM

Latest Report: Oct 1, 2016 at 6:50 AM


Visibility: 10 mi

Pressure: 29.92 "Hg

Humidity: 73%

Dew Point: 61 °F

Location of Bnei BrakLocation

Past Weather in Bnei Brak — Graph

°F

Bnei Brak Temperature Yesterday

Maximum temperature yesterday: 84 °F (at 1:50 PM)
Minimum temperature yesterday: 70 °F (at 5:50 AM)
Average temperature yesterday: 78 °F

High & Low Weather Summary for the Past Weeks

 TemperatureHumidityPressure
High86 °F (Sep 16, 11:50 AM)89% (Sep 21, 5:00 AM)30.07 "Hg (Sep 21, 5:00 AM)
Low70 °F (Sep 30, 5:50 AM)22% (Sep 25, 9:50 AM)29.74 "Hg (Sep 25, 2:50 PM)
Average81 °F62%29.91 "Hg
* Reported Sep 16 6:50 AM — Oct 1 6:50 AM, Bnei Brak, Weather by CustomWeather, © 2016

Note: Actual official high and low records may vary slightly from our data, if they occured in-between our weather recording intervals... More about our weather records

Advertising

Bnei Brak Weather History for the Previous 24 Hours

Scroll right to see more
 ConditionsComfort  
Time TempWeatherWind HumidityBarometerVisibility
6:50 AM
Sat, Oct 1
70 °FSunny.6 mph73%29.92 "Hg10 mi
6:00 AM70 °FClear.5 mph73%29.92 "Hg10 mi
9:50 PM
Fri, Sep 30
77 °FClear.3 mph65%29.95 "Hg10 mi
8:50 PM77 °FClear.6 mph65%29.95 "Hg10 mi
7:50 PM79 °FClear.10 mph61%29.92 "Hg10 mi
6:50 PM79 °FClear.14 mph58%29.92 "Hg10 mi
5:50 PM81 °FSunny.15 mph58%29.92 "Hg10 mi
4:50 PM82 °FSunny.15 mph58%29.92 "Hg10 mi
3:50 PM82 °FSunny.13 mph51%29.92 "Hg10 mi
2:50 PM82 °FSunny.13 mph55%29.95 "Hg10 mi
1:50 PM84 °FSunny.13 mph48%29.95 "Hg10 mi
12:50 PM82 °FSunny.12 mph51%29.98 "Hg10 mi
11:50 AM82 °FSunny.9 mph48%29.98 "Hg10 mi
10:50 AM81 °FSunny.7 mph51%29.98 "Hg10 mi
9:50 AM81 °FSunny.3 mph54%29.98 "Hg10 mi
8:50 AM79 °FSunny.3 mph58%29.98 "Hg10 mi
7:50 AM73 °FSunny.No wind65%29.95 "Hg10 mi
Weather by CustomWeather, © 2016

See weather overviewHow to use our weather pages